FENGYUN 1C DEB, 29776

Orbit data source: Space-Track

FENGYUN 1C DEB, 29776 is space debris in SSO originally from a launch on Mon, 10 May 1999 UTC launched from the Taiyaun Space Center, China (TSC). Fengyun 1C debris stems from the Chinese weather satellite Fengyun-1C, which was intentionally destroyed by a Chinese anti-satellite missile in 2007. This event dramatically increased the amount of space debris, with thousands of trackable fragments posing hazards to satellites and human spaceflight. The Fengyun 1C debris cloud has become a focal point in discussions about space sustainability and the need for international regulations to prevent the creation of new debris.

Loading next visibility...
Identifier
29776, 1999-025BS
Orbit
SSO
Country
Flag of CNCN / PRC
Related business
Manufacturer
Unknown
Mission
Spacecraft
Bus & Motor
Unknown
Mass
Unknown
Launch date (UTC)
1999-05-10 (27 years ago)
Launch vehicle
Unknown
Launch site
Taiyaun Space Center, China (TSC)
Object type
Payload
Rocket body
Debris
Shape & HBR
Unknown shape, 0.2 m
Radar Cross Section
Small (<0.1 m²)

Expand to show TLE details & history
Last TLE update: 9 hours ago

TLE from 9 hours ago
0 FENGYUN 1C DEB
1 29776U 99025BS  26124.03169477  .00000118  00000-0  94789-4 0  9999
2 29776  98.7539 151.6073 0022909 227.6619 161.6824 14.07858398990821
Epoch: 2026-05-04T00:45Z
TLE epoch observation values (Epoch: 2026-05-04T00:45:38.428Z)
Latitude
29.09833°
Longitude
-86.61998°
Altitude
886.064 km
Speed
7.404 km/s
True Right ascension
09h 46m 52s
True Declination
28° 57' 18"
Sunlit
Object was in daylight at epoch
Visualization orbit readout
Latitude
Unknown
Longitude
Unknown
Altitude
Unknown
Speed
Unknown
Apparent Right ascension
Unknown
Apparent Declination
Unknown
Sunlit
N/A
Visualization observer readout
Local Sidereal Time
17:36:17
Azimuth
Unknown
Elevation
Unknown
Doppler factor
Unknown
Orbital elements
Apogee altitude
880.477 km
Perigee altitude
847.296 km
Semi-major axis
7,242.023 km
Eccentricity
0.00229
Inclination
98.7539°
RAAN
151.6073°
Arg. of periapsis
227.6619°
True anomaly
161.76468°
Mean anomaly
161.6824°
Eccentric anomaly
161.72356°
Mean motion
3.52171 °/min
Orbital period
102.22 mins
BSTAR
0.000094789
Loading maneuver chart data...
Computing Atmospheric mass density...

Documentation

Showing up to 5 results
|